NKS546 KMCO-KORF

Flight info

Callsign NKS546
Flight time 1h 39m
Altitude 35000
Route FATHE4 VIYAP Q87 JROSS Q135 RREGG CVI DRONE
Aircraft A320/M-SDE3FGHIRWY/LB1

Departure

Time 2026-04-23 22:13
Airport Orlando International Airport (KMCO)

Arrival

Time 2026-04-23 23:53
Airport Norfolk International Airport (KORF)
Time Latitude Longitude Altitude Speed Heading
2026-04-23 22:02 28.43683 -81.31349 96 ft 0 kts 269°
2026-04-23 22:02 28.43683 -81.31351 96 ft 1 kts 270°
2026-04-23 22:03 28.43685 -81.31382 98 ft 0 kts 276°
2026-04-23 22:03 28.43709 -81.31412 102 ft 9 kts 339°
2026-04-23 22:03 28.43767 -81.31429 103 ft 9 kts 357°
2026-04-23 22:03 28.43803 -81.31375 101 ft 13 kts 97°
2026-04-23 22:04 28.43764 -81.31260 97 ft 18 kts 126°
2026-04-23 22:04 28.43698 -81.31261 95 ft 4 kts 248°
2026-04-23 22:04 28.43684 -81.31328 96 ft 20 kts 258°
2026-04-23 22:04 28.43760 -81.31429 102 ft 18 kts 335°
2026-04-23 22:05 28.43876 -81.31460 105 ft 17 kts 359°
2026-04-23 22:05 28.43928 -81.31353 106 ft 18 kts 87°
2026-04-23 22:05 28.43935 -81.31210 108 ft 19 kts 87°
2026-04-23 22:05 28.43942 -81.31056 108 ft 21 kts 88°
2026-04-23 22:06 28.43943 -81.30881 107 ft 23 kts 90°
2026-04-23 22:06 28.43931 -81.30700 109 ft 24 kts 95°
2026-04-23 22:06 28.43915 -81.30498 106 ft 27 kts 95°
2026-04-23 22:06 28.43908 -81.30275 103 ft 29 kts 93°
2026-04-23 22:07 28.43898 -81.30038 101 ft 31 kts 94°
2026-04-23 22:07 28.43780 -81.29833 96 ft 33 kts 152°
2026-04-23 22:07 28.43563 -81.29801 95 ft 22 kts 159°
2026-04-23 22:07 28.43550 -81.29742 95 ft 8 kts 96°
2026-04-23 22:08 28.43550 -81.29701 97 ft 0 kts 90°
2026-04-23 22:11 28.43550 -81.29693 97 ft 6 kts 90°
2026-04-23 22:12 28.43545 -81.29596 98 ft 13 kts 118°
2026-04-23 22:12 28.43473 -81.29587 97 ft 10 kts 180°
2026-04-23 22:12 28.43462 -81.29587 99 ft 0 kts 180°
2026-04-23 22:12 28.43389 -81.29587 100 ft 36 kts 179°
2026-04-23 22:13 28.42891 -81.29580 100 ft 105 kts 180°
2026-04-23 22:13 28.41979 -81.29567 99 ft 155 kts 181°
2026-04-23 22:13 28.40848 -81.29588 596 ft 162 kts 179°
2026-04-23 22:13 28.39714 -81.29544 1299 ft 164 kts 173°
2026-04-23 22:14 28.38577 -81.29430 1968 ft 169 kts 162°
2026-04-23 22:14 28.37480 -81.28795 2234 ft 187 kts 139°
2026-04-23 22:14 28.36396 -81.27800 2559 ft 215 kts 141°
2026-04-23 22:14 28.35088 -81.26773 2998 ft 241 kts 143°
2026-04-23 22:15 28.33784 -81.25486 3776 ft 253 kts 134°
2026-04-23 22:15 28.32556 -81.24034 4758 ft 256 kts 132°
2026-04-23 22:15 28.31342 -81.22514 5630 ft 266 kts 132°
2026-04-23 22:15 28.30085 -81.20923 6464 ft 274 kts 133°
2026-04-23 22:16 28.28791 -81.19311 7136 ft 279 kts 134°
2026-04-23 22:16 28.27673 -81.17476 7070 ft 285 kts 111°
2026-04-23 22:16 28.27314 -81.15300 7048 ft 282 kts 90°
2026-04-23 22:16 28.27716 -81.13122 7291 ft 289 kts 64°
2026-04-23 22:17 28.28876 -81.11291 8176 ft 293 kts 43°
2026-04-23 22:17 28.30568 -81.10032 9115 ft 292 kts 20°
2026-04-23 22:17 28.32607 -81.09722 9781 ft 298 kts 347°
2026-04-23 22:17 28.34566 -81.10548 10301 ft 310 kts 335°
2026-04-23 22:18 28.36634 -81.11437 10547 ft 334 kts 340°
2026-04-23 22:18 28.38912 -81.12261 10972 ft 350 kts 341°
2026-04-23 22:18 28.41248 -81.13063 11779 ft 351 kts 342°
2026-04-23 22:18 28.43592 -81.13847 12604 ft 351 kts 341°
2026-04-23 22:19 28.45949 -81.14639 13340 ft 355 kts 341°
2026-04-23 22:19 28.48318 -81.15497 14005 ft 360 kts 340°
2026-04-23 22:19 28.50713 -81.16384 14634 ft 363 kts 340°
2026-04-23 22:19 28.53124 -81.17284 15233 ft 367 kts 340°
2026-04-23 22:20 28.55568 -81.18201 15843 ft 370 kts 339°
2026-04-23 22:20 28.58030 -81.19124 16430 ft 374 kts 339°
2026-04-23 22:20 28.60512 -81.20052 17034 ft 378 kts 340°
2026-04-23 22:20 28.63022 -81.20987 17643 ft 381 kts 340°
2026-04-23 22:21 28.64699 -81.21611 18056 ft 384 kts 340°
2026-04-23 22:21 28.67248 -81.22558 18650 ft 387 kts 340°
2026-04-23 22:21 28.69823 -81.23517 19176 ft 391 kts 339°
2026-04-23 22:21 28.72420 -81.24485 19729 ft 394 kts 339°
2026-04-23 22:22 28.75037 -81.25459 20297 ft 397 kts 339°
2026-04-23 22:22 28.77674 -81.26443 20831 ft 401 kts 339°
2026-04-23 22:22 28.81231 -81.27774 21063 ft 402 kts 339°
2026-04-23 22:22 28.82992 -81.28406 21088 ft 402 kts 342°
2026-04-23 22:23 28.85756 -81.28983 21098 ft 406 kts 352°
2026-04-23 22:23 28.88570 -81.29225 21098 ft 406 kts 353°
2026-04-23 22:23 28.91392 -81.29463 21098 ft 406 kts 353°
2026-04-23 22:23 28.94208 -81.29702 21100 ft 406 kts 353°
2026-04-23 22:24 28.97024 -81.29942 21107 ft 406 kts 353°
2026-04-23 22:24 28.99819 -81.30183 21322 ft 410 kts 353°
2026-04-23 22:24 29.02661 -81.30466 21893 ft 412 kts 352°
2026-04-23 22:24 29.05528 -81.30787 22419 ft 415 kts 351°
2026-04-23 22:25 29.08413 -81.31126 22922 ft 418 kts 351°
2026-04-23 22:25 29.11313 -81.31464 23407 ft 421 kts 352°
2026-04-23 22:25 29.14251 -81.31730 23851 ft 425 kts 353°
2026-04-23 22:25 29.17216 -81.31919 24255 ft 428 kts 354°
2026-04-23 22:26 29.20238 -81.32067 24660 ft 431 kts 354°
2026-04-23 22:26 29.23206 -81.32201 25054 ft 433 kts 354°
2026-04-23 22:26 29.26239 -81.32347 25472 ft 436 kts 354°
2026-04-23 22:26 29.29274 -81.32508 25876 ft 438 kts 354°
2026-04-23 22:27 29.32328 -81.32684 26280 ft 440 kts 354°
2026-04-23 22:27 29.35394 -81.32873 26674 ft 442 kts 354°
2026-04-23 22:27 29.38436 -81.33067 27062 ft 445 kts 354°
2026-04-23 22:27 29.41537 -81.33263 27457 ft 448 kts 354°
2026-04-23 22:28 29.44656 -81.33454 27844 ft 450 kts 354°
2026-04-23 22:28 29.47796 -81.33644 28226 ft 453 kts 354°
2026-04-23 22:28 29.50956 -81.33833 28612 ft 455 kts 354°
2026-04-23 22:28 29.54130 -81.34023 28962 ft 458 kts 354°
2026-04-23 22:29 29.57320 -81.34217 29328 ft 461 kts 355°
2026-04-23 22:29 29.60529 -81.34416 29691 ft 463 kts 355°
2026-04-23 22:29 29.63756 -81.34616 30090 ft 465 kts 355°
2026-04-23 22:29 29.66987 -81.34807 30554 ft 464 kts 355°
2026-04-23 22:30 29.70208 -81.34993 30990 ft 463 kts 355°
2026-04-23 22:30 29.73433 -81.35175 31419 ft 463 kts 355°
2026-04-23 22:30 29.76651 -81.35355 31850 ft 463 kts 355°
2026-04-23 22:30 29.79873 -81.35536 32289 ft 463 kts 355°
2026-04-23 22:31 29.83089 -81.35717 32736 ft 463 kts 354°
2026-04-23 22:31 29.86297 -81.35895 33226 ft 461 kts 355°
2026-04-23 22:31 29.89495 -81.36075 33739 ft 459 kts 355°
2026-04-23 22:31 29.92680 -81.36257 34213 ft 458 kts 355°
2026-04-23 22:32 29.95858 -81.36442 34632 ft 457 kts 355°
2026-04-23 22:32 29.99031 -81.36624 35000 ft 457 kts 355°
2026-04-23 22:32 30.05380 -81.36990 35110 ft 457 kts 355°
2026-04-23 22:33 30.11679 -81.37358 35117 ft 456 kts 355°
2026-04-23 22:33 30.18042 -81.37723 35105 ft 454 kts 355°
2026-04-23 22:34 30.24303 -81.38083 35093 ft 453 kts 355°
2026-04-23 22:34 30.30607 -81.38452 35103 ft 453 kts 355°
2026-04-23 22:35 30.36911 -81.38821 35104 ft 454 kts 355°
2026-04-23 22:35 30.43226 -81.39185 35106 ft 454 kts 355°
2026-04-23 22:36 30.49541 -81.39548 35108 ft 454 kts 355°
2026-04-23 22:36 30.55846 -81.39882 35118 ft 454 kts 356°
2026-04-23 22:37 30.62158 -81.40204 35118 ft 454 kts 356°
2026-04-23 22:37 30.68467 -81.40534 35114 ft 454 kts 356°
2026-04-23 22:38 30.74733 -81.40871 35119 ft 453 kts 355°
2026-04-23 22:38 30.81015 -81.41214 35118 ft 452 kts 356°
2026-04-23 22:39 30.87292 -81.41547 35116 ft 452 kts 356°
2026-04-23 22:39 30.93573 -81.41875 35108 ft 451 kts 355°
2026-04-23 22:40 30.99843 -81.42210 35111 ft 451 kts 356°
2026-04-23 22:41 31.09223 -81.42712 35110 ft 449 kts 355°
2026-04-23 22:41 31.15481 -81.43042 35108 ft 449 kts 355°
2026-04-23 22:42 31.21720 -81.43330 35118 ft 449 kts 360°
2026-04-23 22:42 31.27870 -81.42039 35114 ft 452 kts 19°
2026-04-23 22:43 31.33572 -81.39044 35109 ft 452 kts 22°
2026-04-23 22:43 31.39276 -81.35951 35104 ft 452 kts 23°
2026-04-23 22:44 31.44980 -81.32861 35098 ft 451 kts 22°
2026-04-23 22:44 31.50684 -81.29770 35100 ft 451 kts 23°
2026-04-23 22:45 31.56374 -81.26670 35088 ft 451 kts 24°
2026-04-23 22:45 31.62071 -81.23559 35084 ft 451 kts 24°
2026-04-23 22:46 31.67770 -81.20449 35070 ft 451 kts 23°
2026-04-23 22:46 31.73475 -81.17334 35066 ft 452 kts 23°
2026-04-23 22:47 31.79135 -81.14237 35065 ft 452 kts 24°
2026-04-23 22:47 31.84831 -81.11117 35063 ft 451 kts 23°
2026-04-23 22:48 31.90523 -81.07994 35058 ft 451 kts 23°
2026-04-23 22:48 31.96210 -81.04865 35058 ft 451 kts 22°
2026-04-23 22:49 32.01889 -81.01731 35058 ft 450 kts 22°
2026-04-23 22:49 32.07560 -80.98571 35067 ft 450 kts 23°
2026-04-23 22:50 32.13214 -80.95393 35070 ft 450 kts 24°
2026-04-23 22:50 32.18864 -80.92211 35105 ft 450 kts 24°
2026-04-23 22:51 32.24482 -80.89059 35099 ft 450 kts 23°
2026-04-23 22:51 32.30142 -80.85890 35110 ft 450 kts 23°
2026-04-23 22:52 32.35800 -80.82710 35085 ft 450 kts 23°
2026-04-23 22:52 32.41456 -80.79521 35086 ft 450 kts 24°
2026-04-23 22:53 32.47111 -80.76333 35084 ft 450 kts 23°
2026-04-23 22:53 32.52767 -80.73134 35084 ft 450 kts 23°
2026-04-23 22:54 32.58415 -80.69932 35096 ft 450 kts 23°
2026-04-23 22:54 32.64069 -80.66727 35087 ft 450 kts 23°
2026-04-23 22:55 32.69647 -80.63362 35078 ft 452 kts 31°
2026-04-23 22:55 32.74340 -80.58373 35066 ft 456 kts 46°
2026-04-23 22:56 32.78496 -80.52732 35066 ft 457 kts 46°
2026-04-23 22:56 32.82691 -80.47065 35071 ft 457 kts 46°
2026-04-23 22:57 32.86887 -80.41379 35066 ft 457 kts 46°
2026-04-23 22:57 32.91075 -80.35696 35065 ft 457 kts 46°
2026-04-23 22:58 32.95267 -80.30000 35067 ft 457 kts 46°
2026-04-23 22:58 32.99450 -80.24304 35068 ft 457 kts 46°
2026-04-23 22:59 33.03625 -80.18594 35072 ft 457 kts 46°
2026-04-23 22:59 33.07799 -80.12873 35047 ft 457 kts 46°
2026-04-23 23:00 33.11985 -80.07147 35061 ft 458 kts 46°
2026-04-23 23:00 33.16172 -80.01412 35063 ft 458 kts 46°
2026-04-23 23:01 33.20351 -79.95675 35069 ft 458 kts 46°
2026-04-23 23:01 33.24533 -79.89921 35065 ft 459 kts 46°
2026-04-23 23:02 33.28720 -79.84154 35071 ft 459 kts 46°
2026-04-23 23:02 33.32894 -79.78387 35069 ft 458 kts 46°
2026-04-23 23:03 33.37058 -79.72614 35064 ft 458 kts 46°
2026-04-23 23:03 33.41231 -79.66843 35067 ft 458 kts 46°
2026-04-23 23:04 33.45398 -79.61072 35063 ft 458 kts 46°
2026-04-23 23:04 33.49535 -79.55326 35065 ft 458 kts 46°
2026-04-23 23:05 33.53695 -79.49533 35072 ft 458 kts 46°
2026-04-23 23:05 33.57845 -79.43750 35064 ft 457 kts 46°
2026-04-23 23:06 33.61994 -79.37961 35067 ft 457 kts 46°
2026-04-23 23:06 33.66136 -79.32167 35054 ft 457 kts 47°
2026-04-23 23:07 33.70272 -79.26376 35056 ft 457 kts 47°
2026-04-23 23:07 33.74414 -79.20578 35070 ft 457 kts 47°
2026-04-23 23:08 33.78557 -79.14772 35050 ft 457 kts 47°
2026-04-23 23:08 33.82657 -79.09013 35047 ft 456 kts 47°
2026-04-23 23:09 33.86788 -79.03201 35049 ft 456 kts 47°
2026-04-23 23:09 33.90910 -78.97384 35045 ft 457 kts 47°
2026-04-23 23:10 33.94327 -78.92551 35041 ft 457 kts 47°
2026-04-23 23:10 33.98457 -78.86709 35047 ft 457 kts 47°
2026-04-23 23:11 34.02574 -78.80877 35046 ft 457 kts 47°
2026-04-23 23:11 34.06698 -78.75030 35045 ft 457 kts 47°
2026-04-23 23:12 34.10806 -78.69199 35045 ft 457 kts 47°
2026-04-23 23:12 34.14896 -78.63389 35043 ft 457 kts 47°
2026-04-23 23:13 34.19005 -78.57536 35040 ft 457 kts 47°
2026-04-23 23:13 34.23110 -78.51668 35048 ft 456 kts 47°
2026-04-23 23:14 34.27530 -78.46224 35039 ft 453 kts 39°
2026-04-23 23:14 34.32259 -78.41192 35032 ft 453 kts 39°
2026-04-23 23:15 34.36978 -78.36153 35033 ft 452 kts 39°
2026-04-23 23:15 34.41696 -78.31106 35012 ft 452 kts 39°
2026-04-23 23:16 34.46417 -78.26051 35017 ft 452 kts 39°
2026-04-23 23:16 34.51095 -78.21016 35008 ft 452 kts 39°
2026-04-23 23:17 34.55800 -78.15958 35013 ft 452 kts 39°
2026-04-23 23:17 34.60519 -78.10890 35013 ft 452 kts 39°
2026-04-23 23:18 34.65223 -78.05824 35022 ft 452 kts 39°
2026-04-23 23:18 34.69924 -78.00735 35029 ft 452 kts 39°
2026-04-23 23:19 34.74621 -77.95637 35021 ft 452 kts 39°
2026-04-23 23:19 34.79321 -77.90549 35015 ft 452 kts 39°
2026-04-23 23:20 34.84019 -77.85452 35017 ft 452 kts 39°
2026-04-23 23:20 34.88701 -77.80395 35024 ft 452 kts 38°
2026-04-23 23:21 34.93496 -77.75428 35029 ft 452 kts 37°
2026-04-23 23:21 34.98323 -77.70506 35014 ft 452 kts 37°
2026-04-23 23:22 35.03133 -77.65555 35023 ft 452 kts 38°
2026-04-23 23:22 35.07926 -77.60566 35020 ft 452 kts 38°
2026-04-23 23:23 35.12742 -77.55614 35023 ft 451 kts 33°
2026-04-23 23:23 35.18210 -77.52023 35016 ft 446 kts 21°
2026-04-23 23:24 35.23899 -77.48990 35012 ft 446 kts 21°
2026-04-23 23:24 35.29578 -77.45936 35012 ft 446 kts 21°
2026-04-23 23:25 35.35259 -77.42867 35010 ft 446 kts 21°
2026-04-23 23:25 35.40944 -77.39801 35007 ft 446 kts 21°
2026-04-23 23:26 35.46633 -77.36741 34990 ft 446 kts 21°
2026-04-23 23:26 35.52313 -77.33675 34987 ft 446 kts 21°
2026-04-23 23:27 35.57961 -77.30613 34996 ft 446 kts 21°
2026-04-23 23:27 35.63642 -77.27525 34991 ft 446 kts 21°
2026-04-23 23:28 35.69324 -77.24439 34993 ft 446 kts 21°
2026-04-23 23:28 35.75005 -77.21356 34998 ft 446 kts 21°
2026-04-23 23:29 35.80684 -77.18265 34994 ft 446 kts 21°
2026-04-23 23:29 35.86352 -77.15172 35007 ft 445 kts 21°
2026-04-23 23:30 35.92017 -77.12082 35000 ft 445 kts 21°
2026-04-23 23:30 35.97670 -77.08981 34997 ft 445 kts 21°
2026-04-23 23:31 36.03325 -77.05878 34996 ft 444 kts 21°
2026-04-23 23:31 36.08975 -77.02782 34992 ft 444 kts 20°
2026-04-23 23:32 36.14624 -76.99677 34987 ft 444 kts 20°
2026-04-23 23:32 36.20265 -76.96567 34986 ft 444 kts 20°
2026-04-23 23:33 36.25912 -76.93452 34982 ft 444 kts 20°
2026-04-23 23:33 36.31560 -76.90335 34985 ft 444 kts 20°
2026-04-23 23:34 36.37065 -76.86928 34737 ft 449 kts 30°
2026-04-23 23:34 36.39500 -76.84467 33504 ft 457 kts 42°
2026-04-23 23:34 36.41735 -76.81602 31720 ft 466 kts 43°
2026-04-23 23:34 36.43990 -76.78664 30003 ft 472 kts 44°
2026-04-23 23:35 36.46259 -76.75701 28068 ft 476 kts 44°
2026-04-23 23:35 36.48532 -76.72740 26522 ft 471 kts 44°
2026-04-23 23:35 36.50785 -76.69818 25236 ft 463 kts 44°
2026-04-23 23:35 36.52977 -76.66987 24592 ft 446 kts 44°
2026-04-23 23:36 36.55109 -76.64219 24282 ft 441 kts 44°
2026-04-23 23:36 36.57228 -76.61460 24118 ft 440 kts 44°
2026-04-23 23:36 36.59339 -76.58713 23947 ft 439 kts 44°
2026-04-23 23:36 36.61446 -76.55974 23969 ft 437 kts 44°
2026-04-23 23:37 36.63544 -76.53247 23969 ft 435 kts 44°
2026-04-23 23:37 36.65635 -76.50529 23966 ft 434 kts 44°
2026-04-23 23:37 36.67721 -76.47805 23971 ft 434 kts 44°
2026-04-23 23:37 36.69800 -76.45080 23971 ft 433 kts 44°
2026-04-23 23:38 36.71869 -76.42367 23968 ft 432 kts 44°
2026-04-23 23:38 36.73937 -76.39652 23970 ft 431 kts 44°
2026-04-23 23:38 36.75821 -76.36741 23970 ft 433 kts 58°
2026-04-23 23:38 36.76953 -76.33315 23969 ft 436 kts 75°
2026-04-23 23:39 36.77562 -76.29559 23773 ft 435 kts 78°
2026-04-23 23:39 36.78103 -76.25867 22530 ft 430 kts 78°
2026-04-23 23:39 36.78633 -76.22218 21270 ft 425 kts 78°
2026-04-23 23:39 36.79155 -76.18620 20142 ft 418 kts 78°
2026-04-23 23:40 36.79667 -76.15086 19102 ft 412 kts 78°
2026-04-23 23:40 36.80171 -76.11594 18066 ft 405 kts 78°
2026-04-23 23:40 36.80665 -76.08154 16901 ft 400 kts 78°
2026-04-23 23:40 36.81144 -76.04804 15793 ft 394 kts 78°
2026-04-23 23:41 36.81621 -76.01455 14686 ft 389 kts 78°
2026-04-23 23:41 36.82091 -75.98149 13621 ft 385 kts 78°
2026-04-23 23:41 36.82552 -75.94885 12488 ft 379 kts 78°
2026-04-23 23:41 36.83000 -75.91676 11440 ft 372 kts 78°
2026-04-23 23:42 36.83436 -75.88520 10430 ft 365 kts 78°
2026-04-23 23:42 36.83850 -75.85471 10032 ft 343 kts 78°
2026-04-23 23:42 36.84225 -75.82653 9914 ft 316 kts 78°
2026-04-23 23:42 36.84568 -75.80017 9503 ft 302 kts 78°
2026-04-23 23:43 36.85118 -75.77532 8909 ft 292 kts 58°
2026-04-23 23:43 36.86379 -75.75640 8287 ft 280 kts 31°
2026-04-23 23:43 36.88094 -75.74572 7608 ft 275 kts 16°
2026-04-23 23:43 36.89922 -75.73938 6941 ft 270 kts 359°
2026-04-23 23:44 36.91714 -75.74332 6343 ft 259 kts 330°
2026-04-23 23:44 36.93068 -75.75721 5720 ft 251 kts 302°
2026-04-23 23:44 36.93826 -75.77666 5063 ft 250 kts 290°
2026-04-23 23:44 36.94437 -75.79699 4406 ft 250 kts 289°
2026-04-23 23:45 36.95120 -75.81674 4090 ft 245 kts 301°
2026-04-23 23:45 36.96118 -75.83306 3970 ft 227 kts 308°
2026-04-23 23:45 36.97114 -75.84756 3726 ft 215 kts 309°
2026-04-23 23:45 36.98083 -75.86155 3314 ft 212 kts 309°
2026-04-23 23:46 36.99031 -75.87540 3056 ft 209 kts 309°
2026-04-23 23:46 36.99983 -75.88950 3036 ft 214 kts 309°
2026-04-23 23:46 37.00946 -75.90374 3035 ft 215 kts 309°
2026-04-23 23:46 37.01917 -75.91801 3035 ft 215 kts 309°
2026-04-23 23:47 37.02889 -75.93222 3035 ft 214 kts 309°
2026-04-23 23:47 37.03839 -75.94655 3018 ft 214 kts 305°
2026-04-23 23:47 37.04520 -75.96287 3025 ft 212 kts 280°
2026-04-23 23:47 37.04516 -75.98127 3029 ft 213 kts 264°
2026-04-23 23:48 37.04315 -75.99974 3021 ft 215 kts 262°
2026-04-23 23:48 37.04089 -76.01815 3026 ft 214 kts 262°
2026-04-23 23:48 37.03866 -76.03643 3008 ft 205 kts 262°
2026-04-23 23:48 37.03622 -76.05317 3008 ft 191 kts 253°
2026-04-23 23:49 37.02022 -76.07853 2796 ft 189 kts 220°
2026-04-23 23:49 37.00990 -76.08838 2556 ft 189 kts 219°
2026-04-23 23:49 36.99952 -76.09836 2321 ft 187 kts 220°
2026-04-23 23:50 36.98907 -76.10847 2067 ft 188 kts 219°
2026-04-23 23:50 36.97891 -76.11830 1817 ft 187 kts 218°
2026-04-23 23:50 36.96897 -76.12793 1578 ft 186 kts 217°
2026-04-23 23:50 36.95864 -76.13792 1332 ft 185 kts 217°
2026-04-23 23:51 36.94908 -76.14720 1101 ft 165 kts 215°
2026-04-23 23:51 36.94061 -76.15541 901 ft 145 kts 213°
2026-04-23 23:51 36.93284 -76.16294 679 ft 137 kts 215°
2026-04-23 23:51 36.92528 -76.17016 531 ft 136 kts 212°
2026-04-23 23:52 36.91771 -76.17750 342 ft 137 kts 216°
2026-04-23 23:52 36.91008 -76.18495 157 ft 139 kts 213°
2026-04-23 23:52 36.90247 -76.19236 16 ft 132 kts 213°
2026-04-23 23:52 36.89612 -76.19832 7 ft 94 kts 218°
2026-04-23 23:53 36.89257 -76.20177 9 ft 24 kts 219°
2026-04-23 23:53 36.89169 -76.20270 9 ft 17 kts 221°
2026-04-23 23:53 36.89181 -76.20401 8 ft 19 kts 310°
2026-04-23 23:53 36.89264 -76.20391 5 ft 14 kts 37°
2026-04-23 23:54 36.89352 -76.20307 4 ft 17 kts 37°
2026-04-23 23:54 36.89441 -76.20223 5 ft 15 kts 37°
2026-04-23 23:54 36.89533 -76.20134 4 ft 18 kts 38°
2026-04-23 23:54 36.89603 -76.20122 3 ft 8 kts 310°
2026-04-23 23:55 36.89627 -76.20149 3 ft 0 kts 322°
2026-04-23 23:55 36.89630 -76.20150 3 ft 0 kts 330°
2026-04-23 23:55 36.89630 -76.20151 3 ft 0 kts 330°